Wind_Speed
12 13 14 16 17 17 18 18 18 18 19 19 19 19 18 17 17 18 18 18 18 18 18 17 18 17 16 16 15 15 13 12 11 10 9 10 11 10 10 10 11 12 13 15 17 18 16 16 17 15 13 11 9 8 7 6 7 10 11 14 15 15 14 10 9 10 14 17 16 17 11 5 10 11 6 3 1 4 6 9 7 6 3 3 4 3 4 6
12 13 15 16 16 17 16 16 17 17 17 17 16 15 15 15 15 16 16 16 16 16 17 17 17 17 16 16 15 15 13 12 10 7 7 10 11 11 11 10 12 13 15 17 18 19 18 17 15 13 11 9 10 9 7 7 7 9 11 13 14 13 11 8 8 9 11 15 16 15 10 8 9 7 5 2 3 4 5 8 6 4 2 2 2 2 3 7
13 13 14 15 15 15 14 15 15 16 16 15 13 12 12 12 12 12 12 13 13 14 14 15 16 16 16 15 15 14 13 12 9 8 8 8 11 13 12 11 13 13 16 20 19 20 20 17 13 11 10 9 10 8 7 8 8 10 11 11 13 10 8 8 9 9 8 9 12 12 10 10 11 9 9 5 3 5 7 9 6 5 3 3 4 4 5 7
13 13 13 13 13 13 13 14 15 15 15 13 11 10 10 9 9 9 9 10 10 11 12 13 14 15 15 15 15 14 14 12 10 12 10 9 10 11 11 12 14 14 18 21 20 20 19 14 11 11 11 12 12 8 7 7 7 9 9 11 11 7 7 7 6 7 6 5 8 11 11 12 14 12 10 9 9 11 12 12 9 6 5 5 5 6 6 7
12 12 12 12 11 11 12 13 14 14 13 11 9 8 6 6 6 6 7 8 8 9 10 11 12 13 14 15 15 14 13 11 12 15 12 9 9 9 11 14 15 15 19 22 20 19 17 11 9 10 13 15 15 11 9 8 6 7 9 11 9 4 5 7 8 9 8 6 7 9 9 11 12 11 11 11 11 13 14 13 10 9 8 8 7 6 6 6
11 11 11 10 9 11 12 13 13 13 11 9 6 5 4 4 4 5 6 7 8 9 9 10 10 12 13 15 15 15 14 11 12 15 13 11 8 9 13 15 16 16 19 22 20 18 14 9 8 10 13 16 16 13 10 7 5 7 10 10 7 4 3 8 10 9 7 5 6 7 9 11 9 8 9 10 11 12 14 13 11 12 12 10 8 7 7 7
10 10 9 8 9 11 12 13 12 12 9 6 3 3 2 3 4 5 6 8 8 8 8 8 9 10 12 14 15 15 15 12 10 13 14 12 10 12 15 16 15 16 18 21 20 16 11 8 9 11 13 14 14 12 9 7 7 9 9 8 6 4 4 9 8 6 5 3 6 9 10 10 6 7 8 9 11 12 12 10 8 11 13 11 9 6 6 6
8 8 8 8 9 11 12 12 12 10 7 3 2 1 2 3 4 6 7 8 7 6 5 6 7 9 11 13 15 15 16 15 10 11 13 12 12 15 16 16 16 16 19 22 19 14 9 8 11 12 12 12 12 11 8 8 10 9 7 7 5 4 6 9 6 6 6 3 5 9 9 8 8 8 7 7 11 13 10 8 6 8 12 12 11 8 6 6
8 8 7 8 10 10 11 11 11 8 4 2 1 1 1 3 5 6 8 7 5 3 1 3 5 8 10 11 14 15 16 15 12 11 12 13 15 17 16 16 18 19 21 20 16 11 9 10 12 13 13 12 11 10 7 8 11 9 6 6 6 6 8 7 7 8 6 5 5 7 10 8 9 6 6 9 12 12 10 8 7 7 9 10 11 10 8 7
7 7 7 9 9 10 10 10 10 7 3 1 0 0 2 4 5 6 8 7 5 4 4 3 5 7 9 10 12 14 15 16 15 12 13 16 16 17 16 18 21 22 20 18 14 11 10 12 13 13 14 11 9 8 5 8 12 9 6 8 8 9 9 6 10 13 8 6 5 5 10 9 8 6 9 12 12 13 11 9 7 7 7 7 8 9 8 8
7 7 7 9 9 9 9 9 8 5 2 1 1 1 2 4 5 6 8 9 9 9 8 8 9 11 11 12 13 14 14 16 17 15 15 17 17 17 16 18 21 21 19 17 14 12 13 15 14 13 13 10 7 4 3 10 11 8 10 12 12 11 11 10 10 14 14 9 6 5 8 9 7 9 12 14 13 13 11 9 8 6 6 5 5 7 8 8
6 7 7 8 8 7 8 8 7 4 2 1 1 1 2 3 5 6 8 11 12 12 11 11 12 12 12 12 14 14 15 17 18 18 18 18 18 16 16 17 19 20 20 20 19 16 16 16 15 14 13 10 6 3 6 11 8 8 12 14 17 14 12 12 11 12 16 12 9 7 4 9 8 11 12 12 13 12 10 9 8 6 6 5 4 5 8 8
6 6 7 8 7 6 7 7 6 4 1 1 1 1 2 3 5 6 8 11 12 13 13 12 12 10 10 11 12 13 15 16 18 21 20 20 19 15 14 15 17 20 21 21 19 16 15 16 15 15 13 9 6 4 8 8 5 8 11 13 18 16 12 14 13 12 14 12 10 8 2 8 9 11 9 9 12 11 11 10 9 8 7 6 5 5 7 8
6 6 7 7 6 5 6 5 5 3 1 1 1 1 2 3 5 7 8 11 12 13 14 14 13 11 10 10 11 12 14 15 18 22 21 20 17 14 14 15 15 16 16 16 14 10 12 15 15 13 11 7 6 7 7 6 5 7 10 13 15 13 13 17 17 14 14 13 11 9 2 6 8 9 8 7 9 11 11 10 9 9 8 8 7 6 7 7
5 6 7 7 5 5 5 4 4 3 1 1 1 1 2 4 5 7 9 11 12 13 14 14 14 13 11 10 11 12 14 15 18 21 22 20 17 15 15 15 14 12 11 11 8 9 13 14 14 12 9 6 7 8 5 4 7 8 9 13 13 10 13 19 19 17 15 12 11 9 2 6 6 5 6 6 7 10 11 11 11 10 8 7 5 6 6 6
5 6 6 6 5 4 4 4 3 2 1 1 1 2 3 5 5 7 9 10 11 12 12 13 13 14 12 10 12 14 17 18 20 21 22 21 18 16 16 14 12 11 11 10 7 10 15 13 12 10 7 5 7 8 5 5 9 9 10 12 12 10 14 21 21 18 16 13 10 10 6 2 5 5 5 6 5 9 9 9 10 10 9 7 6 6 6 5
4 5 6 6 5 4 4 3 2 1 1 1 1 2 3 5 6 6 7 8 10 11 12 13 14 14 14 13 14 17 20 21 21 22 21 21 19 17 16 15 14 13 12 10 9 12 14 12 11 9 6 6 7 6 4 6 7 8 10 11 12 11 13 21 23 20 18 16 12 10 9 3 5 8 7 7 4 5 6 6 7 9 10 9 8 9 8 6
4 5 5 6 5 3 3 3 1 1 1 1 2 2 4 6 6 5 5 6 7 10 11 11 12 12 12 15 16 18 21 22 22 22 21 20 19 19 18 18 17 16 15 14 15 15 13 11 9 7 7 7 7 6 4 3 5 6 8 11 13 13 14 20 23 22 21 18 14 11 7 4 7 9 9 8 5 4 4 5 5 7 10 10 10 11 11 10
3 4 5 5 5 3 3 3 1 1 1 2 3 4 5 6 5 5 5 5 6 7 8 9 10 10 12 15 17 19 21 23 24 24 23 22 22 22 21 21 20 19 18 16 15 12 10 8 6 6 8 8 6 6 4 4 5 6 7 12 15 16 17 19 20 19 20 18 16 12 6 4 9 10 10 9 7 5 5 5 5 6 9 10 10 11 13 12
3 3 4 5 5 4 3 2 1 0 1 3 4 5 6 7 7 6 6 5 4 6 8 12 14 14 15 15 16 18 20 23 25 26 26 25 24 24 23 22 20 19 17 15 12 8 7 5 5 9 10 8 5 4 5 5 4 4 8 12 13 17 21 18 17 18 19 18 14 10 6 4 8 10 10 9 7 5 4 5 4 5 8 8 8 10 11 11
4 4 4 5 5 4 3 2 1 0 1 3 4 6 8 8 8 6 6 6 5 5 8 12 15 16 15 15 15 17 18 22 27 29 27 27 26 25 23 20 18 17 14 12 10 5 4 3 5 10 9 6 2 3 3 4 0 3 8 7 9 19 22 17 16 19 21 17 11 10 8 6 8 9 10 7 6 4 3 4 4 4 6 6 6 7 8 9
6 4 4 4 5 5 4 2 1 1 1 2 3 5 8 8 7 6 5 6 7 8 8 12 16 16 16 16 16 18 18 22 28 30 28 27 26 23 19 17 15 13 10 7 5 2 0 3 7 7 5 3 1 1 4 5 2 6 12 13 18 23 21 16 15 19 21 14 10 13 12 9 10 11 11 7 4 3 3 4 4 3 4 4 5 5 6 6
7 6 5 4 5 5 4 2 2 3 3 2 3 5 8 8 7 6 5 5 7 9 9 13 16 17 16 15 16 18 19 23 27 28 27 24 22 19 15 13 11 9 6 3 1 3 4 4 10 7 5 3 0 3 5 4 3 10 19 21 22 21 16 15 18 20 18 11 9 15 15 12 14 15 13 9 7 7 5 4 6 5 4 5 4 5 4 4
8 7 6 5 5 6 5 3 1 3 4 3 4 5 8 8 7 7 5 5 7 9 12 15 17 17 16 16 17 17 17 21 24 24 22 19 19 17 12 9 8 7 4 1 3 6 4 6 8 5 5 2 2 9 8 10 16 15 16 18 18 16 9 11 16 17 16 11 10 15 16 16 17 17 17 14 11 13 11 7 7 6 5 6 5 5 4 2
10 8 7 6 6 6 5 3 2 2 4 5 5 5 6 6 7 7 5 4 6 11 16 17 16 16 17 18 18 16 16 19 20 19 17 15 15 13 10 9 8 5 2 2 6 7 6 8 6 4 4 2 4 11 10 12 17 14 11 10 10 10 8 10 14 16 18 15 15 18 13 13 20 20 18 18 16 16 15 11 8 6 5 6 6 6 6 2
11 9 8 7 6 6 6 5 3 2 4 5 5 4 3 3 5 7 5 3 6 14 18 17 14 13 16 18 17 16 15 17 18 18 17 14 11 9 9 10 8 5 1 3 7 6 9 11 6 5 6 4 4 8 8 8 11 10 9 7 6 7 7 9 13 17 19 16 18 22 13 9 20 24 21 20 19 18 17 14 11 8 6 6 8 8 6 2
11 11 9 8 7 6 6 5 4 3 3 4 4 3 2 2 4 6 5 1 5 14 18 17 14 11 13 14 16 16 14 16 18 17 15 14 12 10 10 9 6 4 1 3 6 4 11 13 9 8 8 7 6 6 6 6 6 7 7 6 6 7 5 4 9 13 14 11 15 25 21 11 16 23 23 21 20 20 20 17 14 10 7 7 9 9 7 4
12 11 10 9 7 6 6 6 6 5 4 3 3 2 2 3 5 6 5 1 3 12 16 17 13 12 16 14 14 15 12 16 17 13 13 13 10 11 10 8 6 4 2 5 6 5 11 14 13 9 8 7 7 6 4 3 3 4 5 6 7 7 5 3 7 10 10 10 18 28 25 11 9 18 21 22 24 24 23 21 16 13 9 7 9 11 9 6
12 12 11 10 8 7 6 7 7 7 6 4 2 1 2 5 6 6 3 0 6 12 13 15 13 13 18 15 14 14 12 14 13 10 13 12 9 10 10 7 7 6 6 6 5 6 9 13 12 9 8 7 7 5 2 1 3 4 4 4 6 7 6 5 7 9 8 10 15 25 26 13 7 15 21 23 25 23 21 22 19 15 12 9 10 11 10 6
12 13 12 11 9 7 7 8 9 9 8 5 2 2 4 6 7 5 2 2 8 10 10 15 15 14 18 17 16 15 13 13 12 10 10 10 11 10 9 9 9 7 7 7 7 6 8 11 11 10 8 7 7 7 5 3 4 6 4 2 5 4 4 4 7 7 7 5 4 11 23 20 7 12 21 22 21 18 15 18 18 17 15 12 10 11 9 6
12 13 12 12 10 8 8 8 9 9 9 5 4 5 6 7 7 4 2 3 6 8 12 16 15 16 19 17 15 15 15 14 15 15 11 9 12 12 10 12 12 9 9 10 10 8 9 10 11 11 8 7 9 8 7 7 6 4 1 2 4 1 0 2 3 3 4 2 2 3 12 22 15 13 18 18 19 18 15 12 10 12 12 10 8 10 9 5
13 13 13 12 10 9 9 9 9 9 9 7 6 8 7 7 7 6 3 3 4 5 10 15 17 18 20 18 14 14 16 16 17 18 14 11 12 13 13 14 13 11 10 11 11 9 10 11 11 11 9 7 8 8 7 9 6 3 2 2 2 2 2 1 1 1 3 3 1 6 3 15 19 20 21 20 18 17 16 12 9 9 9 7 7 9 8 5
13 13 13 13 11 10 10 10 9 9 9 9 8 8 8 5 6 9 6 4 2 2 3 10 17 19 21 21 17 15 17 18 18 17 15 14 12 12 13 14 14 14 11 10 11 10 10 12 13 12 10 7 9 9 9 7 2 4 4 3 3 2 4 1 2 2 4 2 1 4 2 6 12 15 18 20 17 14 16 17 14 13 11 9 8 9 8 6
13 13 13 13 11 11 12 10 9 9 9 10 9 7 8 7 4 7 7 2 3 6 6 5 14 18 21 21 16 16 19 19 19 17 17 18 17 16 15 15 17 18 14 10 10 9 8 10 13 14 11 8 8 8 9 5 1 3 5 5 5 3 3 2 3 2 3 3 1 2 3 4 7 8 9 13 13 13 17 20 17 15 14 12 11 12 9 7
14 12 12 12 11 12 13 11 10 10 10 10 9 9 11 12 6 4 6 2 4 5 5 3 12 18 21 19 15 16 18 18 20 19 18 20 21 19 17 16 18 20 18 13 9 9 10 9 11 14 11 7 8 12 8 1 3 2 4 4 3 3 4 3 4 4 2 2 3 3 5 8 11 11 10 10 12 13 17 20 20 17 17 17 15 13 9 7
13 12 12 12 12 13 14 12 11 11 11 11 12 13 15 14 9 5 4 1 5 5 6 3 10 17 20 20 16 15 16 16 18 19 20 21 22 21 17 15 17 19 18 15 11 10 12 12 11 14 13 8 10 12 4 3 3 1 4 5 2 2 3 2 3 3 1 1 3 4 6 11 12 11 10 10 12 14 17 20 21 19 19 19 16 13 10 9
13 12 11 11 13 13 13 12 12 12 13 13 14 16 16 15 13 9 4 3 5 4 6 5 9 16 17 19 18 16 17 17 17 19 23 22 21 22 20 16 16 17 16 14 13 12 12 11 13 15 15 13 12 11 6 4 2 2 4 6 4 3 4 4 3 1 1 0 3 6 8 10 9 8 10 11 12 14 17 20 22 21 20 20 17 13 11 10
12 11 11 12 13 13 12 12 13 13 14 15 16 16 16 16 14 10 6 5 5 3 5 5 7 13 9 9 10 9 12 17 18 20 23 22 19 20 22 21 18 16 15 14 14 15 12 10 15 18 16 15 15 13 9 7 5 3 3 5 3 2 3 4 3 1 1 1 2 5 8 11 13 12 11 11 13 14 16 19 21 21 20 19 17 14 12 11
12 12 12 13 13 14 14 13 14 14 15 17 18 16 15 15 13 9 5 4 4 3 3 3 3 9 6 3 3 2 3 10 16 20 23 21 19 18 19 21 21 19 18 18 17 18 16 13 16 18 16 15 16 15 12 9 8 6 5 6 5 2 2 3 3 3 2 2 1 2 4 9 14 14 11 9 12 14 15 16 17 18 19 19 16 14 13 12
12 12 13 13 14 14 14 14 15 15 16 18 19 16 14 13 13 10 5 3 4 2 2 3 3 5 7 5 3 2 1 3 10 18 20 19 19 19 16 17 20 19 18 19 19 20 20 16 16 17 16 15 17 18 15 11 10 10 9 9 9 6 4 3 5 5 4 2 2 1 3 10 14 12 10 9 10 13 13 13 14 15 17 17 16 15 14 14
13 14 14 13 14 14 15 16 17 16 16 18 19 16 14 14 13 12 9 5 5 2 2 4 5 7 9 8 7 5 3 1 4 10 14 16 17 17 15 16 18 17 17 18 21 22 22 17 17 20 19 17 15 16 15 12 12 12 11 10 9 8 7 4 3 7 8 5 4 3 4 12 14 12 11 10 9 11 12 12 13 14 15 15 15 16 16 16
14 14 15 15 15 15 15 16 17 17 17 17 18 16 14 15 15 15 13 8 6 5 4 5 6 7 7 7 7 6 4 4 3 5 9 13 16 17 16 16 18 16 17 22 23 23 21 16 17 21 21 17 12 11 12 11 10 12 12 11 10 10 10 7 4 7 8 8 8 7 5 12 16 14 12 10 8 10 11 12 13 14 14 14 16 18 18 18
13 14 15 17 17 16 15 14 13 15 16 15 17 16 15 16 15 15 15 10 7 7 6 6 7 6 3 3 4 5 5 4 2 3 6 9 14 18 17 16 18 18 19 22 23 23 20 15 16 18 17 15 10 7 9 10 10 12 13 12 12 11 12 12 11 11 9 10 11 6 3 11 15 12 11 11 9 11 13 14 14 15 16 16 18 20 20 19
13 15 17 18 19 17 14 11 10 12 14 15 16 16 15 17 16 15 16 13 9 8 7 7 8 7 4 3 4 6 7 6 3 3 4 7 10 16 17 16 18 19 20 21 22 22 17 13 16 14 9 8 6 4 9 12 12 13 14 13 13 13 12 11 12 12 10 12 13 8 6 13 14 11 12 12 11 12 13 14 15 16 18 20 20 21 21 20
14 16 18 20 20 17 14 12 11 12 14 16 17 16 15 16 15 15 16 15 12 10 8 8 10 10 7 5 5 6 7 7 7 4 3 5 9 12 14 15 16 19 20 19 18 17 14 12 15 14 8 7 6 7 11 15 14 15 15 15 13 12 10 9 10 11 11 13 16 13 12 17 17 16 17 16 13 13 13 14 16 18 20 22 23 23 23 21
14 16 19 22 21 18 16 16 16 16 16 16 16 14 13 14 14 13 14 15 14 13 11 11 11 12 11 8 6 6 7 7 8 7 5 6 9 12 13 14 14 15 14 14 13 12 11 10 12 12 11 10 11 10 11 11 13 15 15 16 14 11 9 9 10 12 13 15 19 20 19 22 22 21 21 18 16 16 16 17 17 18 22 25 25 25 24 21
15 15 18 21 21 20 20 19 18 18 17 15 14 12 11 11 12 12 12 13 13 14 15 14 14 14 14 13 10 8 8 7 8 10 10 7 7 9 12 13 12 10 10 10 10 9 9 8 9 10 11 12 13 14 14 14 16 17 17 17 17 14 13 14 14 15 15 15 18 20 20 22 22 20 19 19 20 21 21 20 20 20 22 26 27 27 25 22
15 15 17 20 20 20 21 22 20 18 17 15 13 11 10 11 13 13 12 13 11 12 14 13 13 14 14 14 14 12 10 9 8 10 14 12 10 10 11 12 11 11 10 9 9 9 9 9 10 11 12 14 15 17 18 19 20 20 20 21 20 19 18 18 18 18 18 19 21 20 20 20 19 17 17 19 20 21 22 22 21 21 23 26 28 28 26 23
16 16 17 19 20 20 21 23 23 19 17 15 13 12 13 15 17 14 13 13 11 10 13 12 10 11 11 11 13 14 13 12 9 9 11 12 12 11 11 12 13 14 13 12 13 13 12 10 11 11 12 14 17 18 19 20 21 22 22 21 21 22 23 22 22 21 21 23 24 23 22 23 20 17 18 19 19 20 21 22 23 24 25 27 28 29 26 22
16 17 18 19 20 21 21 23 23 20 17 16 15 14 15 17 17 14 12 12 9 8 12 14 12 11 11 10 11 12 14 15 13 11 10 9 10 11 12 14 16 17 18 17 16 16 15 11 10 12 13 14 16 18 19 19 20 22 23 23 23 24 25 26 24 23 21 21 21 21 23 25 23 20 18 17 18 20 20 21 23 25 27 28 29 29 26 23
17 18 20 19 20 22 22 21 22 21 19 18 17 17 17 17 17 15 12 10 9 9 12 15 15 13 11 10 10 10 12 14 15 14 12 10 10 11 12 15 16 17 18 16 15 15 14 12 11 11 12 14 14 16 18 18 18 21 23 24 25 25 25 25 24 21 19 18 19 21 24 24 23 23 21 18 17 16 16 18 20 24 27 28 28 28 26 23
18 19 21 20 20 22 22 21 22 22 21 20 19 19 19 18 17 15 13 11 11 12 13 16 16 14 12 10 8 7 7 9 12 15 14 13 12 12 12 13 15 15 16 16 16 15 12 11 12 11 11 13 13 13 16 15 13 16 19 18 18 19 20 22 24 22 19 19 21 22 24 23 22 21 19 17 15 13 12 13 14 17 20 22 25 25 23 21
Wind_Direction
302 300 299 300 302 303 302 300 297 294 291 290 288 286 283 280 276 272 269 265 262 259 255 251 249 248 246 245 244 243 242 241 241 238 235 226 216 206 198 188 184 183 168 151 144 142 143 143 135 125 121 117 110 109 107 105 86 68 69 77 73 69 76 90 96 96 108 120 138 152 159 109 119 145 151 148 56 28 20 16 31 42 60 86 70 75 65 82
305 303 302 303 304 304 304 303 300 298 296 295 293 291 287 283 278 275 271 267 264 259 255 250 248 246 243 241 239 238 236 237 236 222 219 218 203 186 179 174 176 178 161 151 148 149 150 142 129 118 109 99 105 111 102 104 97 84 85 87 83 81 86 85 89 105 112 118 126 131 127 91 102 121 87 57 339 359 1 5 32 66 85 80 73 99 100 99
306 304 305 306 306 306 308 308 306 304 302 300 298 296 293 288 283 278 272 268 263 258 254 249 246 242 238 236 233 232 231 232 221 197 194 188 180 174 167 165 168 165 158 154 151 155 155 141 127 112 97 89 100 101 87 100 110 101 96 96 96 91 94 98 101 109 105 110 119 119 116 91 81 73 56 47 12 34 36 33 59 94 96 90 110 125 116 112
307 307 308 309 309 311 314 314 311 308 306 303 301 299 296 292 287 281 275 271 267 262 255 249 244 237 234 231 227 227 225 223 206 193 182 158 160 167 163 162 157 153 158 157 152 157 157 143 130 111 90 87 94 97 97 108 120 111 101 108 113 95 78 95 102 96 95 101 106 104 101 84 74 69 63 58 47 48 53 56 69 85 80 79 112 133 122 113
309 309 311 313 315 319 320 318 314 311 308 305 303 302 298 297 292 288 286 283 279 270 260 252 244 235 230 224 222 221 217 214 198 191 188 174 163 156 157 154 147 144 154 158 153 153 152 139 124 105 91 96 100 104 111 113 123 117 116 130 131 91 71 103 103 91 102 108 96 92 78 63 56 56 59 53 45 44 54 63 67 69 68 72 97 119 112 110
311 312 315 318 321 325 324 319 316 311 308 305 303 306 305 305 303 304 304 299 290 278 267 255 245 234 226 219 216 213 209 204 192 190 196 196 178 163 160 151 143 141 150 160 156 149 146 134 123 111 103 106 106 104 107 110 124 120 123 140 130 68 76 108 98 88 105 100 75 73 66 60 49 52 56 53 51 43 49 64 69 68 69 75 90 96 87 87
311 315 319 323 326 329 325 321 316 310 308 304 302 311 312 314 318 321 318 310 299 285 270 253 240 229 222 215 209 206 204 201 194 195 198 195 181 168 160 151 145 141 149 157 154 147 143 134 130 125 117 115 110 105 103 104 128 131 125 134 109 71 98 106 103 103 114 88 65 80 88 86 79 79 79 68 53 34 33 52 67 67 68 74 84 91 88 81
312 318 321 326 330 329 325 321 316 310 306 297 300 312 312 331 335 334 329 322 312 294 270 243 225 216 214 209 204 200 200 200 194 192 191 186 171 159 154 149 145 144 149 151 148 144 140 140 136 132 130 126 117 107 99 105 126 133 130 140 128 114 122 118 137 145 127 112 85 100 117 113 105 100 93 66 39 29 27 36 53 61 67 76 81 82 83 87
313 319 323 328 331 328 324 321 316 309 302 282 276 295 327 348 349 347 344 341 335 319 270 212 198 198 198 196 195 193 195 195 185 179 176 171 163 154 151 149 147 149 151 148 146 143 145 148 142 139 137 133 126 114 102 115 126 122 129 161 168 157 138 134 175 175 147 133 122 122 134 128 113 99 49 41 36 38 38 33 43 52 60 74 83 84 72 77
314 319 323 328 330 327 324 322 316 307 290 255 208 298 354 4 5 7 5 11 28 56 80 124 151 160 170 175 180 182 189 188 178 172 165 163 161 153 152 151 151 155 155 150 149 153 158 157 153 150 144 143 139 121 106 129 131 126 144 171 174 162 151 155 178 184 182 156 166 152 133 125 104 71 31 44 48 42 36 30 42 50 54 64 75 77 67 71
313 317 323 327 329 327 326 323 317 304 277 219 183 355 14 20 25 28 28 42 63 73 82 106 123 130 141 153 160 168 181 183 178 174 166 164 159 151 150 152 156 162 163 161 164 168 170 167 165 163 158 158 146 118 141 150 146 147 159 174 177 172 170 177 185 193 200 183 186 193 123 109 81 45 40 50 46 37 30 28 43 47 46 49 55 52 51 61
311 317 322 325 328 329 328 325 317 302 268 201 178 37 35 35 40 48 53 61 70 74 82 101 113 117 127 144 152 160 174 178 177 177 171 165 158 150 148 151 159 168 172 177 181 180 180 179 176 176 172 162 143 138 166 163 170 168 164 173 171 172 179 186 200 204 207 203 196 212 91 77 56 37 48 53 40 34 28 31 42 39 30 35 50 44 38 45
310 316 320 323 328 333 331 327 317 301 254 200 160 71 52 52 57 67 74 73 73 73 77 88 99 107 118 140 155 164 172 173 173 176 174 166 158 156 158 157 162 171 178 185 186 184 189 190 183 180 172 154 147 168 176 177 196 175 174 181 168 170 184 189 208 213 210 216 212 227 336 64 59 43 51 52 39 29 27 36 39 32 27 30 38 33 29 33
309 314 319 321 328 337 334 328 319 308 244 204 137 92 76 79 80 83 87 84 82 78 77 79 84 96 111 135 155 164 168 169 170 173 176 173 171 175 178 174 173 175 182 185 186 189 191 184 176 174 166 155 162 168 170 183 195 169 172 184 173 173 186 192 210 218 211 213 214 236 280 84 72 51 50 52 39 18 25 46 48 42 39 38 35 24 31 33
309 313 317 317 326 339 337 330 320 313 246 199 134 119 116 109 106 98 92 92 91 84 81 79 77 82 94 125 146 151 157 163 166 169 176 180 181 185 184 183 184 181 179 180 185 186 178 172 168 168 166 162 170 174 178 183 183 179 175 184 189 189 187 195 212 221 221 216 209 223 205 93 88 77 62 54 33 10 22 46 52 55 50 46 48 40 46 41
307 312 314 313 322 337 336 333 318 308 260 199 160 152 142 136 135 116 98 96 99 96 89 82 78 77 79 106 133 141 147 153 158 163 169 170 171 176 178 176 174 171 177 183 183 180 178 176 170 167 171 174 181 193 204 181 173 184 192 195 209 206 184 191 207 217 227 236 225 218 224 115 114 135 91 65 32 10 22 39 50 62 58 57 67 61 56 41
308 310 309 307 311 329 335 331 313 284 250 202 170 160 156 156 159 144 116 101 103 108 100 91 89 87 87 100 122 137 141 143 148 153 158 160 162 167 167 159 153 154 164 165 158 172 180 175 167 165 178 190 194 201 200 191 191 200 210 216 222 214 192 191 198 205 217 236 240 221 234 246 124 135 111 82 49 22 36 49 61 71 67 71 77 70 67 58
300 305 304 301 301 319 328 325 314 243 222 204 187 172 163 169 181 178 152 124 116 117 105 101 104 101 102 107 118 131 135 138 142 146 150 154 152 152 151 146 144 146 146 144 145 158 165 162 165 171 187 197 199 204 195 195 213 216 224 228 223 210 203 200 196 200 210 221 226 216 226 218 152 140 122 103 85 79 88 84 88 88 84 86 85 78 76 73
284 297 297 293 292 301 311 316 323 232 196 192 190 181 176 184 200 200 176 153 138 134 117 113 119 120 122 121 125 135 139 141 143 144 144 145 143 141 141 140 140 141 138 139 143 151 161 169 178 174 180 186 189 211 253 299 250 236 237 236 234 214 197 199 196 198 205 205 210 223 247 216 172 148 128 120 116 117 113 106 107 109 104 98 89 84 82 77
262 280 288 287 285 284 290 298 311 337 198 193 189 194 197 196 197 198 192 178 151 146 133 122 124 126 129 132 137 143 147 146 143 141 141 140 141 140 139 137 136 138 136 139 146 150 161 174 173 162 164 167 180 250 308 308 250 240 249 244 241 213 186 181 187 187 197 199 198 218 244 211 176 155 136 124 121 131 126 109 111 126 121 105 88 83 84 81
249 261 277 280 280 277 276 275 253 350 266 211 203 214 210 200 199 201 203 202 180 164 154 138 132 129 132 138 141 144 150 153 147 144 143 142 143 141 139 135 132 134 136 143 152 150 153 155 151 160 165 161 186 293 10 27 90 214 237 220 180 182 169 161 179 181 190 205 201 207 217 192 179 171 158 140 117 127 146 123 116 135 131 111 98 90 85 84
245 248 261 271 275 274 271 270 207 200 262 232 230 230 215 210 210 205 208 211 196 184 172 151 137 131 135 142 146 148 153 158 152 148 146 144 144 142 138 133 128 134 137 136 140 121 280 160 144 153 173 177 233 346 67 39 342 193 176 148 141 156 154 155 180 183 188 209 210 199 203 190 185 186 182 175 155 167 195 163 149 156 149 131 116 103 87 74
245 243 251 259 267 270 268 275 209 202 223 240 258 242 227 232 226 210 213 212 199 189 168 149 140 135 136 140 150 150 149 157 157 151 149 146 146 143 136 130 126 136 140 110 53 335 320 144 146 162 180 192 36 112 112 75 109 160 150 136 138 148 152 164 178 185 193 216 222 197 194 191 190 195 198 194 186 201 223 202 183 176 168 172 148 120 108 69
246 242 246 251 260 265 260 263 226 216 223 223 244 242 238 244 232 217 216 208 197 181 163 151 143 138 137 138 144 142 141 154 158 156 154 152 149 143 135 137 140 142 136 49 309 294 273 149 143 167 177 187 105 127 133 118 118 131 136 130 138 151 164 173 176 190 197 209 224 198 182 187 195 201 205 202 198 207 224 231 203 175 162 184 176 149 152 121
246 242 243 245 254 259 253 246 232 235 228 220 229 227 229 237 227 218 213 211 196 173 164 156 145 144 147 147 143 139 145 154 158 161 163 159 153 146 145 157 159 158 123 347 307 285 223 167 151 167 175 195 135 131 131 128 124 122 127 130 140 156 169 175 180 192 187 185 204 200 183 190 203 207 210 211 211 211 221 231 212 177 156 181 185 173 173 167
245 242 241 239 247 253 249 241 236 238 220 218 221 207 200 213 219 214 202 218 203 178 170 163 157 156 157 155 152 152 162 165 160 159 162 166 169 166 172 176 165 155 129 337 311 274 195 184 189 198 202 207 174 148 137 137 137 129 127 132 147 161 163 177 187 190 186 185 197 204 205 200 204 211 215 217 220 221 225 229 212 184 160 178 189 182 183 197
243 241 239 236 240 246 245 240 236 241 225 217 212 198 187 178 202 203 185 241 212 184 177 174 175 173 162 160 164 165 168 168 162 155 155 166 182 195 199 198 184 153 138 297 293 231 185 191 196 196 211 213 196 180 153 143 151 142 135 134 149 164 159 176 189 191 200 201 193 204 214 216 211 217 219 221 225 226 228 231 221 200 176 173 187 190 192 196
242 238 237 236 232 236 242 234 227 234 235 227 211 203 223 196 190 183 168 9 183 176 181 182 178 175 170 166 170 172 164 164 168 162 157 165 187 207 210 216 221 215 243 263 259 218 193 197 198 200 220 214 192 188 159 143 173 153 149 162 170 186 204 210 198 200 206 196 190 200 211 225 232 223 219 221 225 228 231 234 231 220 207 181 179 190 191 189
241 235 234 235 231 228 233 230 226 226 223 225 219 210 219 198 184 173 166 188 163 165 178 180 172 172 177 176 173 178 179 178 180 172 167 176 192 206 210 220 234 233 242 248 227 211 202 197 205 224 237 221 203 208 213 196 187 153 141 173 191 206 219 226 235 219 192 189 201 206 210 219 241 224 216 217 228 238 241 239 235 228 225 209 188 190 195 201
239 233 230 232 232 224 225 227 224 221 218 219 227 223 208 190 180 171 153 163 167 170 180 179 175 176 182 181 174 179 187 186 184 180 180 193 201 209 219 225 232 232 238 235 209 212 210 196 205 222 229 231 225 227 232 220 181 157 135 164 190 207 217 229 253 230 187 189 211 212 217 221 234 234 228 234 251 264 255 239 236 231 232 233 215 203 209 223
236 232 227 227 230 226 227 228 219 217 217 215 228 227 207 189 183 172 147 174 185 189 188 182 180 186 188 184 181 187 187 177 181 191 197 202 204 212 220 219 222 226 227 219 208 212 210 201 204 211 228 253 238 231 229 209 184 157 118 175 181 179 255 245 262 206 186 203 55 19 228 220 226 245 250 261 272 271 254 233 235 236 238 245 233 221 225 242
233 229 226 223 224 226 230 228 218 215 215 217 227 219 200 190 198 200 175 163 181 195 199 194 189 192 196 196 200 203 192 178 181 194 201 205 205 209 215 218 218 218 219 216 213 212 205 201 201 212 239 263 241 232 216 201 199 213 274 263 208 44 36 321 333 178 240 232 333 351 259 213 231 247 257 269 272 265 249 230 231 243 250 256 245 238 241 267
231 225 223 221 217 221 230 230 222 219 217 216 221 208 191 187 211 213 195 146 126 347 281 217 203 200 202 203 208 210 203 191 188 195 200 207 215 212 215 225 225 222 224 219 212 209 205 204 211 226 243 252 250 236 198 183 212 249 253 268 249 88 73 291 290 313 279 242 2 326 237 211 243 248 255 264 265 261 245 232 230 239 252 259 252 249 251 281
231 222 220 220 214 218 228 228 224 227 222 214 215 204 195 198 208 216 207 165 10 353 349 243 214 210 208 208 211 211 208 203 203 210 209 211 223 225 222 225 222 219 223 224 214 210 213 215 222 234 239 242 241 205 167 153 356 251 249 269 253 196 143 215 226 211 250 259 304 261 215 235 254 252 262 265 256 243 235 232 228 231 239 241 244 250 256 285
232 221 216 217 216 218 225 226 224 231 228 219 217 212 210 211 204 193 188 160 355 349 1 274 216 212 212 214 215 212 210 207 210 218 222 221 227 232 229 219 210 212 219 222 217 213 224 237 237 231 229 233 208 174 152 46 334 279 251 257 256 211 191 174 183 200 232 298 297 240 236 263 270 269 266 255 242 226 222 226 226 228 233 235 242 251 259 287
233 223 215 215 219 220 223 224 223 228 230 226 224 224 224 221 208 187 169 67 343 349 11 325 214 210 214 215 213 211 212 216 215 218 226 229 232 236 231 212 206 214 219 218 213 212 227 236 227 215 211 206 187 176 177 321 320 288 236 220 192 188 204 177 169 201 218 311 284 256 262 274 280 278 262 244 234 221 216 221 225 229 235 237 244 251 263 286
233 226 217 214 220 222 223 223 222 227 230 230 231 232 234 231 222 224 238 307 322 335 356 329 213 204 214 219 222 222 223 227 224 221 226 228 232 235 230 216 215 222 223 222 220 220 231 224 199 196 202 196 185 188 221 265 255 251 210 201 219 236 229 223 194 140 86 270 256 247 257 268 270 274 269 253 241 229 219 219 224 231 237 240 244 252 266 279
233 228 221 217 218 220 220 220 220 224 228 233 236 235 237 238 233 239 259 282 289 289 331 330 200 192 200 212 216 220 226 230 227 225 227 226 228 233 230 225 226 228 227 230 226 216 218 206 186 192 201 195 191 201 219 227 218 230 208 190 215 244 212 212 203 159 199 233 265 248 247 257 261 271 279 266 255 247 230 224 229 236 242 244 245 254 264 270
230 225 222 218 217 216 215 217 220 222 226 233 238 238 239 241 237 235 245 266 273 270 297 323 197 195 207 212 193 177 233 233 228 226 225 222 224 229 234 234 232 232 232 234 228 208 199 197 190 195 200 195 198 206 211 212 204 208 219 198 193 199 196 219 221 204 202 200 265 272 244 258 272 283 287 273 262 255 242 240 245 247 249 250 251 258 262 266
223 221 220 218 217 216 212 213 218 221 224 232 239 241 240 243 236 218 198 236 260 269 275 282 279 250 253 265 257 266 337 225 223 227 222 217 220 223 232 236 229 229 231 229 225 207 194 198 196 192 194 201 212 214 215 225 220 211 212 202 199 204 204 222 231 229 233 208 179 177 254 274 286 297 297 286 269 256 252 257 259 256 254 253 255 260 259 261
218 218 218 215 216 217 214 213 217 220 223 231 240 243 241 244 233 203 184 209 234 229 272 266 281 285 274 272 268 268 296 273 222 229 224 221 224 224 224 223 220 225 221 208 207 203 195 196 196 190 193 205 215 214 215 227 229 222 219 215 219 223 213 203 216 229 239 244 223 201 256 282 291 300 301 295 274 260 262 265 262 259 258 258 261 260 256 257
217 215 214 214 216 216 215 213 214 219 222 228 239 244 239 241 233 208 201 212 208 206 254 272 279 288 282 278 272 262 279 284 233 220 228 230 233 233 227 217 214 220 212 194 191 196 197 197 196 193 195 198 198 196 199 205 213 217 219 224 234 239 232 227 230 233 234 242 246 236 253 283 290 298 300 296 278 264 264 262 259 258 258 260 261 256 252 251
215 212 213 216 217 211 208 210 215 221 224 227 237 240 236 236 231 215 214 221 211 210 239 265 267 268 266 267 260 249 266 277 222 189 218 226 228 231 230 220 211 209 205 198 192 192 195 193 186 184 186 190 188 186 189 191 200 212 217 225 236 246 249 251 260 263 251 239 240 228 236 276 287 299 300 292 275 263 262 261 258 255 254 254 254 252 251 249
213 209 211 217 218 210 206 211 217 223 226 229 232 232 230 233 231 219 216 220 217 218 234 255 253 249 252 249 235 242 259 258 220 181 210 218 216 218 219 214 207 204 205 205 199 195 196 187 174 167 162 174 181 184 194 196 203 215 222 224 229 238 244 250 261 261 248 240 238 221 239 273 286 303 303 295 278 264 263 263 259 256 253 251 251 250 248 246
213 208 209 214 216 209 207 215 214 215 224 228 229 227 225 227 227 221 218 219 218 220 229 244 246 245 256 267 248 239 245 242 232 226 222 206 194 194 198 198 201 205 208 209 204 201 203 195 185 181 173 180 197 209 211 208 208 217 225 224 227 236 242 252 258 241 230 239 236 228 253 278 285 293 296 296 288 278 274 268 264 261 255 249 249 250 249 250
216 210 208 212 217 212 210 218 220 221 228 230 227 225 222 221 219 214 216 219 217 216 222 234 241 242 249 259 255 235 226 222 222 215 192 176 178 175 173 181 192 198 201 200 195 196 202 200 199 207 213 219 228 232 231 226 220 224 228 228 231 240 252 265 258 239 242 251 247 247 265 278 282 285 287 286 283 281 277 270 268 265 256 246 244 246 249 253
220 214 208 209 215 216 216 223 227 227 232 231 224 221 220 220 215 204 205 213 212 213 222 233 239 239 245 250 247 235 222 212 211 204 192 191 201 191 184 189 195 196 195 193 187 193 208 210 212 224 234 239 243 246 250 252 249 247 248 247 242 240 252 264 263 263 267 259 255 265 275 278 280 284 283 279 276 273 271 271 272 269 260 250 244 244 247 254
224 218 211 207 209 213 216 223 227 227 231 230 221 218 218 216 211 201 195 199 203 212 220 224 228 234 244 249 247 244 236 225 215 206 205 216 230 226 219 221 219 214 212 214 217 225 234 236 237 241 240 237 239 244 249 250 252 253 254 254 247 241 250 263 268 277 278 266 268 282 284 279 281 282 280 280 278 275 277 279 276 268 258 251 246 245 249 257
226 222 218 212 210 211 213 218 221 223 227 225 217 216 217 213 210 205 197 195 199 209 212 208 206 217 230 241 244 247 246 240 230 215 214 221 225 226 228 227 224 224 228 234 240 244 245 243 239 238 238 237 239 243 245 245 247 250 251 253 252 249 255 264 269 276 280 276 277 282 281 281 286 286 279 275 274 276 278 275 269 263 257 252 249 248 253 262
227 225 223 217 213 213 214 216 218 219 221 219 215 217 219 216 211 205 199 202 199 196 205 209 204 204 212 223 235 244 247 246 244 238 230 224 219 221 226 224 223 226 229 231 232 236 238 230 219 223 230 236 239 243 248 248 248 250 252 255 257 257 259 262 265 272 278 277 277 278 280 284 289 289 282 271 268 271 271 268 265 261 258 255 253 253 258 267
228 226 226 223 219 218 219 220 218 217 218 217 215 217 219 220 216 203 192 199 204 194 199 208 208 207 213 224 237 248 251 250 250 248 244 235 222 221 224 225 226 226 224 220 213 217 224 219 214 222 230 236 241 243 246 250 254 257 260 261 262 263 263 262 261 267 275 278 279 280 281 283 287 288 285 280 276 272 266 264 263 260 259 259 258 258 262 268
232 228 227 227 227 225 224 225 222 219 220 219 216 218 219 222 221 208 192 194 209 209 204 208 211 213 222 232 237 241 245 249 252 250 248 244 238 232 228 229 231 229 224 218 209 210 222 227 228 232 236 243 247 242 244 253 264 266 265 268 269 264 263 262 258 259 268 275 277 279 280 282 285 284 282 282 279 273 268 267 264 261 260 261 260 260 261 265
Height
3179 3179 3178 3177 3176 3175 3174 3172 3171 3170 3169 3167 3166 3165 3165 3165 3165 3164 3164 3164 3164 3164 3164 3165 3165 3165 3166 3166 3167 3168 3168 3169 3170 3170 3171 3172 3173 3174 3175 3176 3177 3178 3179 3180 3181 3181 3182 3182 3182 3184 3184 3185 3185 3185 3185 3184 3185 3185 3185 3184 3185 3185 3186 3187 3188 3188 3188 3189 3190 3191 3192 3191 3189 3190 3191 3191 3191 3191 3191 3191 3191 3191 3191 3191 3191 3191 3192 3193
3178 3177 3177 3176 3174 3173 3172 3171 3169 3168 3167 3166 3165 3164 3163 3163 3162 3162 3162 3161 3161 3162 3162 3162 3162 3163 3164 3165 3165 3166 3167 3168 3169 3170 3170 3170 3171 3172 3174 3175 3176 3177 3179 3180 3181 3181 3181 3182 3183 3184 3184 3184 3184 3184 3184 3184 3185 3185 3186 3186 3186 3187 3187 3188 3189 3189 3189 3190 3191 3192 3193 3192 3191 3191 3191 3191 3191 3191 3191 3191 3190 3191 3191 3191 3191 3191 3192 3193
3177 3176 3175 3174 3173 3172 3170 3169 3168 3166 3165 3164 3163 3162 3162 3161 3161 3160 3160 3159 3159 3159 3159 3160 3160 3161 3162 3163 3164 3165 3166 3167 3168 3169 3169 3169 3170 3171 3173 3174 3175 3176 3178 3179 3180 3180 3181 3182 3183 3184 3184 3184 3184 3184 3184 3184 3185 3186 3186 3187 3187 3187 3187 3188 3189 3190 3191 3191 3192 3192 3193 3193 3192 3192 3192 3192 3192 3192 3191 3191 3190 3190 3190 3190 3190 3191 3191 3192
3175 3175 3174 3173 3171 3170 3169 3168 3166 3165 3164 3163 3162 3161 3160 3160 3159 3159 3158 3158 3158 3158 3157 3158 3158 3159 3160 3161 3162 3163 3164 3166 3167 3168 3168 3169 3170 3171 3172 3173 3174 3176 3177 3178 3179 3180 3181 3182 3183 3184 3184 3184 3184 3185 3185 3185 3186 3186 3187 3188 3188 3188 3188 3189 3190 3190 3191 3191 3192 3192 3193 3193 3192 3193 3193 3193 3192 3192 3191 3190 3190 3190 3190 3190 3190 3190 3191 3192
3174 3173 3172 3171 3170 3169 3168 3167 3165 3164 3163 3162 3161 3160 3159 3159 3158 3158 3157 3157 3156 3156 3156 3156 3156 3157 3158 3159 3160 3162 3163 3165 3166 3167 3168 3169 3170 3171 3172 3173 3174 3175 3176 3178 3179 3180 3181 3182 3183 3183 3183 3183 3184 3185 3185 3185 3186 3186 3187 3188 3189 3189 3189 3190 3191 3191 3191 3192 3192 3193 3193 3193 3193 3193 3193 3193 3192 3192 3191 3191 3191 3190 3190 3190 3190 3191 3191 3192
3173 3172 3171 3170 3169 3168 3167 3166 3165 3163 3162 3161 3160 3159 3159 3158 3158 3157 3157 3156 3155 3155 3154 3154 3154 3155 3156 3157 3159 3160 3162 3163 3164 3166 3167 3169 3170 3171 3172 3173 3174 3175 3176 3178 3179 3180 3181 3182 3182 3182 3182 3183 3183 3184 3185 3185 3186 3187 3188 3188 3189 3189 3189 3190 3191 3191 3192 3192 3193 3193 3193 3193 3194 3193 3193 3193 3192 3192 3191 3191 3192 3191 3191 3191 3191 3191 3192 3192
3172 3171 3170 3169 3168 3167 3166 3165 3164 3162 3161 3160 3159 3159 3158 3158 3157 3157 3156 3155 3154 3153 3152 3152 3153 3153 3154 3155 3157 3159 3161 3162 3164 3165 3166 3168 3170 3171 3171 3172 3174 3175 3176 3177 3178 3180 3180 3181 3181 3181 3182 3182 3182 3183 3185 3186 3187 3188 3188 3189 3189 3190 3190 3191 3191 3192 3192 3193 3193 3193 3193 3194 3195 3194 3194 3193 3193 3192 3192 3191 3192 3192 3192 3191 3191 3192 3192 3192
3171 3170 3169 3168 3167 3166 3165 3164 3163 3161 3160 3159 3159 3159 3158 3158 3157 3156 3155 3154 3152 3151 3151 3151 3151 3151 3152 3154 3156 3158 3160 3161 3163 3164 3166 3167 3169 3170 3171 3172 3173 3174 3176 3177 3178 3179 3180 3180 3181 3181 3181 3182 3182 3184 3185 3187 3187 3188 3189 3189 3190 3190 3191 3191 3192 3192 3193 3193 3193 3193 3193 3195 3195 3194 3194 3193 3193 3193 3192 3192 3192 3192 3192 3192 3192 3192 3192 3193
3170 3169 3168 3167 3166 3165 3164 3163 3162 3161 3160 3159 3159 3158 3158 3157 3157 3156 3154 3153 3151 3150 3149 3149 3150 3150 3151 3153 3155 3157 3159 3161 3162 3164 3165 3167 3169 3170 3171 3172 3173 3174 3176 3177 3178 3179 3179 3180 3180 3181 3181 3182 3183 3184 3186 3187 3188 3189 3190 3189 3190 3191 3191 3192 3192 3193 3193 3193 3194 3193 3194 3195 3195 3195 3195 3194 3194 3194 3193 3193 3193 3192 3192 3193 3193 3193 3193 3193
3169 3168 3167 3166 3165 3164 3163 3162 3161 3160 3159 3158 3158 3158 3158 3157 3156 3155 3154 3152 3151 3150 3149 3149 3149 3150 3151 3152 3154 3156 3158 3160 3162 3163 3165 3167 3169 3170 3171 3172 3173 3174 3176 3177 3178 3178 3179 3179 3180 3181 3181 3182 3183 3184 3185 3186 3187 3188 3190 3190 3190 3191 3192 3193 3193 3193 3193 3193 3193 3194 3194 3195 3195 3195 3195 3194 3194 3194 3193 3193 3193 3193 3193 3193 3194 3194 3194 3194
3168 3167 3166 3165 3164 3163 3162 3161 3160 3159 3158 3158 3158 3158 3157 3157 3156 3155 3154 3153 3151 3150 3150 3149 3149 3149 3150 3152 3153 3155 3157 3159 3161 3163 3165 3167 3169 3170 3171 3173 3174 3175 3176 3177 3177 3178 3179 3179 3180 3181 3181 3182 3183 3184 3185 3186 3186 3187 3189 3190 3190 3191 3192 3193 3193 3192 3192 3192 3193 3194 3194 3194 3195 3195 3194 3194 3193 3193 3193 3193 3193 3193 3193 3194 3194 3195 3195 3195
3168 3167 3166 3165 3164 3162 3161 3160 3159 3159 3158 3158 3158 3157 3157 3157 3156 3155 3155 3153 3152 3151 3151 3150 3150 3150 3151 3152 3153 3154 3156 3158 3160 3163 3164 3166 3168 3169 3171 3173 3174 3175 3176 3176 3177 3178 3179 3179 3180 3181 3181 3182 3182 3183 3184 3185 3186 3187 3188 3189 3190 3190 3191 3192 3193 3192 3192 3192 3193 3194 3194 3194 3195 3194 3193 3193 3193 3193 3193 3193 3193 3193 3193 3194 3195 3195 3196 3196
3167 3166 3165 3164 3163 3162 3161 3160 3159 3158 3158 3157 3157 3157 3157 3157 3156 3155 3155 3154 3153 3153 3152 3152 3151 3151 3152 3152 3153 3154 3155 3157 3160 3162 3164 3166 3168 3169 3171 3172 3173 3174 3175 3176 3177 3179 3179 3180 3180 3181 3181 3182 3182 3183 3184 3185 3186 3187 3188 3189 3190 3190 3191 3192 3192 3192 3193 3193 3193 3194 3194 3194 3194 3194 3193 3193 3193 3193 3193 3193 3193 3193 3193 3194 3195 3195 3196 3196
3166 3165 3164 3163 3162 3161 3160 3159 3158 3158 3157 3157 3157 3157 3157 3156 3156 3156 3155 3154 3154 3153 3153 3152 3152 3152 3152 3153 3153 3154 3155 3157 3159 3162 3164 3166 3168 3169 3170 3172 3173 3174 3175 3177 3178 3179 3179 3180 3181 3182 3182 3182 3183 3183 3184 3185 3186 3186 3187 3188 3189 3190 3191 3191 3191 3192 3193 3193 3194 3194 3194 3194 3194 3193 3193 3193 3193 3194 3193 3193 3193 3193 3193 3194 3195 3195 3196 3196
3165 3165 3164 3163 3161 3160 3159 3159 3158 3157 3157 3157 3157 3157 3157 3156 3156 3156 3155 3155 3154 3154 3154 3153 3153 3153 3153 3153 3153 3154 3155 3157 3159 3161 3164 3166 3167 3169 3170 3171 3173 3174 3175 3177 3178 3179 3179 3181 3182 3183 3182 3183 3183 3184 3184 3185 3185 3186 3187 3187 3189 3190 3191 3191 3191 3192 3192 3193 3193 3194 3194 3194 3194 3193 3193 3193 3194 3194 3193 3193 3193 3193 3194 3195 3195 3196 3196 3196
3164 3164 3163 3162 3161 3160 3159 3158 3157 3157 3156 3156 3156 3156 3156 3156 3156 3156 3156 3155 3155 3155 3155 3154 3154 3154 3154 3155 3155 3155 3156 3157 3159 3161 3163 3165 3166 3168 3170 3171 3173 3174 3176 3177 3178 3179 3180 3181 3182 3182 3182 3183 3183 3184 3184 3184 3185 3186 3186 3187 3188 3189 3190 3190 3191 3192 3193 3193 3193 3193 3193 3193 3193 3193 3194 3194 3195 3195 3194 3193 3193 3194 3195 3195 3196 3196 3196 3196
3163 3163 3162 3161 3160 3159 3159 3158 3157 3156 3156 3156 3156 3156 3156 3156 3156 3156 3156 3156 3156 3155 3155 3155 3155 3155 3155 3156 3156 3157 3157 3158 3160 3161 3163 3164 3166 3167 3169 3171 3172 3174 3175 3176 3178 3179 3181 3182 3182 3182 3182 3182 3183 3183 3184 3184 3185 3185 3186 3186 3187 3188 3188 3189 3190 3191 3192 3193 3193 3193 3193 3194 3193 3193 3194 3195 3196 3196 3195 3195 3195 3195 3196 3196 3196 3196 3196 3196
3162 3162 3162 3161 3160 3159 3158 3157 3157 3156 3156 3156 3156 3156 3156 3156 3156 3156 3156 3156 3156 3156 3156 3156 3156 3156 3157 3157 3158 3159 3160 3160 3161 3162 3164 3165 3166 3168 3170 3171 3172 3173 3174 3176 3178 3179 3181 3182 3182 3182 3182 3182 3182 3183 3183 3184 3184 3184 3184 3184 3185 3186 3186 3187 3188 3190 3191 3192 3193 3193 3193 3194 3193 3194 3195 3196 3197 3198 3197 3196 3197 3197 3197 3197 3197 3197 3197 3197
3161 3161 3161 3160 3159 3158 3158 3157 3156 3156 3156 3155 3155 3155 3156 3156 3156 3156 3156 3156 3157 3157 3157 3157 3156 3157 3158 3159 3159 3160 3161 3162 3162 3163 3164 3166 3167 3169 3170 3171 3172 3173 3174 3176 3178 3179 3180 3181 3181 3181 3181 3181 3182 3183 3183 3183 3183 3183 3182 3182 3183 3184 3185 3186 3188 3189 3190 3191 3192 3193 3193 3193 3193 3194 3195 3197 3198 3198 3198 3198 3198 3198 3198 3198 3198 3198 3198 3198
3160 3160 3160 3159 3159 3158 3157 3157 3156 3156 3155 3155 3155 3155 3155 3155 3155 3155 3156 3156 3156 3157 3157 3157 3157 3157 3158 3159 3159 3160 3162 3163 3163 3164 3166 3167 3168 3170 3171 3172 3173 3174 3175 3176 3178 3179 3179 3180 3180 3180 3180 3181 3181 3182 3183 3182 3181 3180 3179 3179 3180 3182 3184 3186 3188 3189 3189 3191 3192 3193 3193 3193 3194 3195 3196 3197 3197 3198 3199 3198 3199 3199 3199 3198 3198 3198 3199 3199
3159 3159 3159 3159 3158 3157 3157 3156 3156 3155 3155 3154 3154 3154 3155 3155 3155 3155 3155 3156 3156 3157 3157 3157 3157 3158 3159 3160 3160 3160 3162 3164 3164 3165 3166 3167 3168 3170 3171 3173 3173 3174 3175 3176 3177 3178 3178 3179 3179 3179 3180 3180 3181 3182 3181 3181 3180 3179 3178 3177 3177 3180 3183 3186 3187 3188 3189 3191 3191 3192 3193 3193 3194 3195 3196 3197 3197 3198 3199 3198 3199 3199 3198 3198 3198 3198 3198 3199
3158 3158 3158 3158 3157 3156 3156 3156 3155 3155 3154 3154 3154 3154 3154 3154 3154 3154 3154 3155 3155 3156 3156 3157 3157 3158 3159 3160 3161 3160 3161 3164 3165 3165 3166 3167 3169 3170 3171 3173 3174 3175 3176 3176 3177 3177 3178 3178 3178 3179 3180 3180 3180 3180 3180 3180 3179 3178 3177 3176 3178 3181 3183 3186 3188 3189 3189 3190 3190 3191 3192 3193 3194 3195 3196 3197 3197 3198 3199 3198 3198 3198 3198 3198 3198 3198 3198 3198
3157 3157 3157 3157 3156 3156 3155 3155 3155 3154 3154 3153 3153 3153 3153 3154 3154 3154 3154 3154 3155 3155 3156 3157 3157 3158 3159 3160 3161 3161 3161 3163 3165 3166 3167 3168 3169 3170 3171 3172 3173 3174 3175 3176 3177 3177 3177 3177 3178 3178 3179 3179 3179 3180 3180 3179 3178 3179 3179 3178 3179 3182 3183 3185 3188 3188 3189 3190 3190 3190 3191 3192 3193 3194 3195 3196 3196 3197 3198 3198 3198 3198 3198 3198 3198 3198 3198 3198
3156 3156 3156 3156 3156 3155 3154 3154 3154 3153 3153 3153 3153 3153 3153 3153 3154 3154 3154 3154 3154 3155 3156 3157 3157 3158 3159 3160 3162 3162 3162 3164 3166 3167 3168 3169 3169 3170 3171 3172 3173 3174 3175 3176 3176 3177 3177 3177 3177 3178 3178 3178 3179 3179 3180 3179 3179 3180 3181 3180 3181 3183 3183 3184 3186 3187 3188 3189 3189 3190 3191 3192 3192 3193 3194 3194 3195 3196 3197 3198 3198 3198 3198 3198 3198 3198 3197 3197
3155 3155 3155 3155 3155 3154 3154 3154 3153 3153 3152 3152 3152 3152 3152 3153 3153 3153 3153 3153 3153 3154 3155 3156 3157 3158 3159 3160 3161 3162 3163 3164 3166 3167 3168 3169 3170 3170 3171 3172 3173 3174 3175 3176 3176 3176 3176 3176 3176 3177 3178 3178 3178 3179 3180 3180 3180 3180 3181 3182 3182 3183 3183 3184 3185 3185 3187 3189 3189 3189 3191 3191 3191 3191 3192 3192 3193 3194 3195 3196 3197 3197 3198 3198 3198 3198 3197 3197
3153 3153 3153 3154 3154 3153 3153 3153 3152 3152 3152 3152 3152 3152 3152 3152 3152 3153 3153 3153 3153 3153 3154 3155 3157 3158 3159 3160 3161 3162 3163 3165 3166 3167 3167 3169 3170 3171 3171 3172 3172 3174 3175 3175 3175 3175 3175 3176 3176 3177 3178 3178 3179 3179 3180 3180 3180 3180 3181 3181 3182 3183 3183 3183 3184 3184 3185 3186 3187 3188 3188 3189 3189 3189 3190 3191 3192 3193 3194 3195 3196 3196 3197 3197 3198 3197 3197 3197
3152 3152 3152 3152 3152 3152 3152 3152 3152 3151 3151 3151 3151 3151 3152 3152 3152 3152 3152 3153 3152 3152 3154 3155 3156 3157 3158 3160 3160 3162 3163 3164 3166 3166 3166 3168 3169 3170 3171 3171 3172 3173 3174 3174 3174 3174 3174 3175 3175 3176 3177 3177 3178 3178 3179 3180 3180 3180 3181 3181 3182 3182 3182 3182 3183 3183 3184 3185 3186 3186 3186 3187 3187 3187 3188 3189 3190 3190 3191 3192 3194 3195 3195 3196 3197 3197 3196 3196
3150 3151 3151 3151 3151 3151 3151 3151 3151 3151 3150 3150 3151 3151 3151 3151 3152 3152 3152 3153 3152 3151 3153 3154 3155 3157 3158 3159 3160 3162 3163 3164 3165 3166 3166 3167 3168 3169 3170 3171 3172 3173 3173 3174 3173 3173 3174 3174 3175 3176 3176 3176 3177 3178 3178 3179 3179 3180 3180 3181 3181 3182 3182 3182 3182 3183 3183 3184 3184 3184 3185 3186 3185 3185 3186 3187 3187 3187 3188 3189 3191 3192 3194 3195 3196 3196 3196 3196
3149 3149 3150 3150 3150 3150 3150 3150 3150 3150 3150 3150 3150 3150 3151 3151 3151 3151 3152 3152 3150 3150 3152 3153 3155 3156 3157 3158 3159 3161 3163 3164 3165 3166 3166 3166 3167 3168 3169 3170 3171 3172 3172 3173 3172 3173 3173 3174 3175 3175 3175 3176 3176 3177 3177 3178 3178 3178 3179 3180 3180 3181 3181 3181 3181 3181 3181 3182 3182 3182 3183 3184 3182 3182 3183 3184 3183 3183 3184 3187 3189 3190 3192 3193 3194 3195 3195 3196
3147 3147 3148 3149 3149 3149 3149 3149 3149 3149 3150 3150 3150 3150 3150 3150 3151 3151 3152 3151 3150 3151 3152 3153 3154 3155 3156 3157 3158 3160 3161 3162 3164 3165 3165 3165 3166 3167 3168 3169 3170 3170 3171 3171 3171 3172 3172 3173 3174 3174 3175 3175 3175 3176 3176 3176 3177 3178 3178 3179 3179 3179 3179 3179 3179 3179 3180 3181 3180 3180 3181 3182 3180 3179 3179 3179 3179 3180 3183 3185 3186 3188 3189 3191 3192 3193 3193 3194
3145 3145 3146 3147 3148 3148 3148 3148 3148 3149 3149 3149 3149 3150 3150 3150 3150 3151 3151 3150 3149 3151 3151 3152 3154 3155 3155 3156 3157 3158 3160 3161 3162 3163 3164 3164 3165 3166 3167 3167 3168 3169 3170 3170 3170 3171 3172 3172 3173 3173 3174 3174 3174 3175 3175 3176 3176 3177 3177 3177 3178 3177 3177 3177 3177 3177 3178 3179 3179 3179 3179 3181 3179 3177 3177 3177 3178 3179 3182 3183 3184 3186 3188 3189 3190 3191 3191 3192
3143 3144 3145 3145 3146 3147 3147 3147 3147 3148 3148 3149 3149 3149 3149 3150 3150 3149 3149 3149 3149 3150 3151 3152 3153 3153 3155 3156 3157 3158 3159 3160 3160 3161 3162 3163 3164 3164 3165 3166 3167 3168 3168 3168 3169 3170 3171 3171 3172 3172 3173 3173 3173 3174 3174 3175 3176 3176 3177 3176 3176 3176 3177 3177 3177 3177 3177 3177 3178 3178 3178 3179 3177 3175 3176 3176 3177 3178 3180 3182 3183 3185 3187 3188 3188 3189 3189 3189
3141 3142 3143 3144 3145 3146 3146 3146 3146 3147 3147 3148 3148 3149 3149 3150 3149 3147 3147 3149 3149 3150 3150 3151 3152 3153 3154 3155 3156 3157 3158 3159 3159 3160 3161 3162 3162 3163 3164 3165 3166 3166 3167 3167 3168 3169 3170 3170 3171 3171 3171 3172 3173 3173 3173 3175 3175 3175 3175 3175 3175 3176 3178 3180 3180 3179 3178 3176 3177 3177 3177 3177 3175 3174 3175 3174 3175 3176 3178 3180 3182 3183 3185 3186 3187 3187 3187 3187
3139 3140 3141 3142 3143 3144 3144 3144 3145 3146 3146 3147 3148 3148 3148 3148 3147 3147 3148 3149 3149 3149 3149 3150 3150 3152 3153 3153 3154 3155 3156 3157 3158 3159 3160 3161 3161 3161 3162 3163 3163 3164 3166 3166 3167 3168 3169 3169 3169 3170 3170 3171 3172 3172 3173 3174 3174 3174 3174 3174 3174 3174 3176 3178 3178 3177 3176 3176 3176 3176 3176 3175 3174 3173 3173 3173 3173 3174 3176 3178 3180 3181 3183 3184 3184 3185 3185 3186
3138 3138 3139 3140 3141 3142 3142 3143 3144 3144 3145 3146 3147 3147 3147 3146 3146 3147 3147 3148 3148 3148 3147 3148 3149 3150 3151 3152 3153 3154 3155 3156 3157 3157 3158 3158 3159 3159 3159 3160 3161 3162 3164 3165 3166 3167 3167 3167 3168 3169 3169 3170 3171 3171 3172 3173 3173 3173 3173 3173 3173 3173 3173 3175 3175 3175 3175 3175 3175 3175 3174 3173 3172 3172 3172 3172 3172 3173 3174 3176 3178 3179 3180 3181 3182 3183 3183 3184
3136 3137 3138 3139 3139 3140 3141 3142 3143 3143 3144 3145 3145 3145 3145 3145 3146 3146 3147 3147 3148 3147 3146 3146 3147 3149 3150 3151 3152 3153 3154 3154 3155 3156 3156 3156 3156 3157 3158 3159 3159 3160 3162 3163 3164 3165 3165 3165 3166 3167 3168 3169 3170 3171 3171 3172 3172 3172 3172 3172 3173 3173 3173 3174 3174 3175 3176 3176 3175 3174 3173 3172 3171 3171 3171 3171 3171 3172 3172 3174 3176 3177 3178 3179 3180 3181 3182 3183
3135 3135 3136 3137 3137 3138 3139 3140 3141 3141 3142 3143 3143 3143 3144 3144 3145 3146 3146 3147 3147 3147 3146 3146 3146 3148 3149 3150 3150 3152 3152 3152 3153 3154 3153 3154 3154 3154 3155 3157 3158 3159 3160 3162 3163 3163 3164 3164 3165 3166 3167 3168 3169 3170 3170 3171 3171 3171 3171 3172 3172 3172 3173 3173 3174 3175 3177 3176 3175 3173 3172 3171 3171 3170 3170 3170 3171 3171 3171 3172 3174 3175 3176 3177 3178 3179 3181 3181
3133 3134 3134 3135 3135 3136 3137 3138 3139 3140 3140 3141 3141 3142 3142 3143 3144 3145 3146 3146 3146 3146 3146 3146 3146 3147 3148 3149 3149 3150 3150 3150 3151 3151 3151 3152 3152 3152 3153 3154 3156 3157 3159 3160 3161 3162 3163 3163 3164 3165 3166 3167 3168 3169 3169 3170 3171 3170 3170 3171 3171 3171 3172 3172 3173 3174 3175 3176 3174 3172 3171 3171 3170 3169 3169 3169 3169 3170 3170 3171 3172 3173 3174 3175 3177 3178 3179 3179
3131 3132 3132 3132 3133 3134 3135 3136 3137 3138 3138 3138 3139 3140 3141 3142 3143 3144 3145 3145 3145 3145 3145 3145 3146 3146 3147 3148 3148 3149 3149 3148 3148 3149 3149 3150 3150 3150 3151 3152 3153 3155 3156 3158 3159 3160 3161 3162 3163 3164 3165 3166 3167 3167 3168 3168 3169 3169 3169 3170 3170 3170 3171 3171 3172 3172 3172 3174 3174 3172 3170 3168 3167 3167 3167 3168 3168 3169 3169 3170 3170 3171 3173 3174 3176 3177 3177 3177
3129 3130 3130 3131 3131 3132 3133 3134 3135 3136 3136 3136 3137 3138 3140 3140 3142 3143 3144 3144 3144 3144 3144 3145 3145 3145 3146 3147 3147 3147 3147 3146 3146 3146 3147 3148 3148 3148 3149 3150 3151 3152 3154 3155 3156 3158 3159 3160 3161 3162 3164 3165 3165 3165 3166 3167 3168 3168 3168 3168 3168 3169 3170 3170 3171 3170 3170 3171 3172 3172 3169 3165 3165 3165 3165 3165 3166 3167 3167 3168 3169 3170 3172 3173 3174 3175 3175 3176
3127 3128 3128 3129 3130 3130 3131 3132 3132 3133 3134 3135 3135 3137 3138 3138 3139 3141 3142 3142 3142 3142 3143 3144 3144 3144 3144 3145 3145 3145 3146 3145 3145 3145 3146 3147 3147 3147 3148 3148 3149 3150 3151 3152 3154 3156 3157 3158 3159 3160 3162 3162 3163 3164 3165 3166 3166 3166 3166 3166 3167 3167 3168 3169 3169 3169 3169 3169 3169 3169 3166 3162 3163 3164 3163 3164 3164 3165 3166 3167 3167 3169 3170 3171 3172 3173 3173 3174
3125 3126 3127 3127 3128 3129 3129 3130 3130 3131 3132 3133 3134 3135 3136 3136 3137 3139 3140 3141 3141 3141 3142 3143 3143 3143 3143 3143 3144 3144 3144 3144 3144 3144 3144 3145 3146 3146 3147 3148 3148 3149 3150 3151 3152 3154 3156 3157 3158 3158 3160 3161 3162 3163 3164 3164 3165 3165 3165 3165 3166 3166 3166 3167 3167 3167 3167 3167 3167 3167 3164 3161 3162 3163 3162 3162 3163 3163 3164 3165 3166 3167 3168 3170 3170 3171 3171 3172
3123 3124 3124 3125 3125 3127 3128 3128 3129 3130 3131 3132 3132 3132 3133 3134 3136 3137 3138 3139 3140 3140 3141 3141 3141 3141 3141 3142 3142 3142 3143 3143 3143 3142 3142 3143 3144 3144 3146 3147 3148 3149 3149 3150 3151 3153 3154 3155 3156 3158 3160 3161 3162 3162 3163 3163 3164 3164 3164 3164 3164 3164 3164 3165 3165 3165 3165 3165 3165 3165 3163 3160 3161 3162 3161 3161 3161 3162 3162 3163 3164 3165 3166 3167 3168 3168 3169 3169
3121 3122 3122 3122 3123 3125 3126 3127 3128 3129 3129 3129 3129 3130 3132 3133 3134 3136 3137 3137 3138 3138 3139 3140 3140 3140 3140 3140 3141 3141 3141 3142 3142 3142 3142 3142 3142 3143 3144 3146 3147 3148 3148 3149 3150 3151 3153 3154 3155 3157 3159 3161 3162 3162 3162 3162 3162 3162 3163 3163 3163 3163 3163 3163 3163 3163 3163 3162 3162 3162 3161 3159 3160 3160 3160 3160 3160 3160 3160 3161 3162 3163 3164 3165 3165 3166 3166 3167
3119 3120 3120 3120 3121 3124 3125 3126 3126 3126 3126 3127 3128 3129 3130 3131 3132 3134 3135 3135 3136 3136 3137 3138 3138 3138 3139 3139 3140 3140 3140 3141 3141 3141 3141 3142 3142 3142 3143 3145 3146 3147 3147 3148 3149 3150 3151 3152 3153 3155 3157 3159 3160 3159 3159 3159 3160 3161 3161 3161 3161 3161 3161 3161 3161 3161 3160 3160 3160 3159 3158 3157 3158 3158 3159 3159 3159 3159 3159 3159 3160 3161 3161 3162 3163 3164 3165 3166
3117 3118 3118 3119 3120 3122 3123 3123 3124 3124 3124 3125 3127 3128 3129 3130 3131 3132 3133 3134 3135 3135 3136 3136 3137 3137 3137 3138 3139 3139 3139 3140 3140 3141 3141 3142 3142 3142 3143 3144 3145 3146 3147 3147 3148 3149 3150 3151 3152 3153 3154 3155 3156 3156 3156 3157 3158 3158 3159 3159 3159 3159 3159 3159 3159 3158 3158 3158 3157 3156 3157 3156 3156 3157 3157 3157 3157 3157 3157 3157 3157 3158 3159 3160 3161 3162 3163 3164
3115 3116 3117 3118 3119 3120 3121 3121 3122 3123 3123 3124 3125 3127 3128 3128 3129 3130 3131 3132 3133 3134 3134 3135 3136 3136 3137 3137 3138 3138 3138 3138 3139 3140 3140 3141 3141 3142 3142 3143 3143 3144 3145 3146 3147 3148 3149 3150 3151 3152 3153 3154 3154 3155 3155 3155 3156 3156 3157 3157 3157 3157 3156 3157 3156 3155 3156 3155 3153 3154 3156 3154 3154 3155 3155 3155 3155 3155 3155 3155 3155 3156 3157 3158 3159 3160 3161 3162
3113 3114 3115 3116 3117 3118 3119 3119 3120 3121 3122 3122 3124 3125 3125 3126 3126 3127 3128 3129 3130 3131 3132 3133 3134 3135 3135 3136 3136 3137 3137 3137 3138 3138 3139 3139 3140 3141 3141 3142 3142 3143 3144 3145 3146 3147 3149 3150 3150 3151 3152 3153 3153 3153 3153 3153 3153 3153 3154 3154 3154 3154 3154 3153 3153 3153 3154 3152 3151 3152 3153 3152 3152 3153 3152 3152 3153 3152 3153 3153 3153 3154 3155 3156 3157 3158 3159 3160
3111 3112 3113 3114 3115 3115 3116 3117 3118 3119 3120 3121 3122 3122 3122 3123 3124 3125 3126 3127 3129 3129 3130 3131 3132 3132 3132 3133 3134 3135 3135 3136 3136 3137 3137 3138 3139 3139 3140 3141 3141 3142 3143 3144 3145 3146 3147 3148 3149 3150 3150 3151 3151 3151 3151 3151 3151 3151 3151 3151 3151 3152 3151 3150 3150 3150 3150 3149 3149 3150 3150 3149 3150 3151 3150 3150 3150 3150 3151 3151 3152 3153 3153 3154 3155 3156 3157 3158
3109 3110 3110 3111 3112 3113 3114 3115 3116 3118 3118 3119 3120 3120 3120 3121 3122 3123 3125 3126 3127 3127 3128 3129 3129 3129 3130 3131 3132 3133 3134 3134 3135 3135 3136 3137 3137 3138 3139 3139 3140 3141 3142 3143 3144 3144 3146 3147 3147 3148 3149 3149 3149 3149 3149 3149 3149 3148 3148 3148 3149 3149 3149 3148 3148 3148 3147 3146 3147 3147 3146 3145 3147 3148 3148 3148 3147 3147 3148 3148 3149 3150 3151 3152 3153 3154 3155 3156
3107 3107 3108 3109 3110 3111 3112 3113 3115 3116 3116 3117 3118 3118 3119 3119 3120 3122 3124 3124 3124 3124 3124 3125 3126 3127 3128 3129 3130 3131 3132 3133 3133 3134 3135 3135 3136 3137 3137 3138 3139 3139 3140 3142 3142 3143 3144 3145 3146 3147 3147 3147 3147 3147 3146 3146 3146 3146 3145 3146 3146 3146 3146 3146 3146 3145 3145 3144 3144 3144 3142 3143 3145 3145 3145 3145 3145 3145 3145 3146 3147 3148 3149 3150 3151 3152 3154 3155
3104 3105 3106 3107 3108 3109 3110 3111 3113 3113 3114 3115 3116 3116 3117 3118 3119 3121 3122 3122 3122 3122 3122 3123 3124 3125 3126 3127 3127 3128 3130 3130 3131 3132 3133 3134 3134 3135 3136 3137 3138 3138 3139 3140 3141 3142 3143 3143 3144 3145 3144 3144 3145 3145 3145 3145 3145 3143 3143 3143 3143 3143 3143 3142 3142 3143 3143 3142 3141 3140 3140 3141 3142 3142 3143 3143 3143 3144 3144 3144 3145 3146 3147 3148 3149 3151 3152 3153